Content
SEND FEEDBACK

Daily
Averages
Monthly
Summary
United States of America

BOILING SPRING LAKES, NORTH CAROLINA


Home > North America > United States > North Carolina
Elevation: 20 feet     Latitude: 34 00N     Longitude: 078 01W

WEATHER
 
SELECT A DAY
Number of Records: 136,557;   Date Range: 8/21/01 - 8/12/14
 
SHARE

PRINT THIS DATA

[ ← Previous Day ]
WEATHER ALMANAC - APRIL 23, 2013
[ Next Day → ]
[ °C ]   °F
Weather ElementAverageHighLow
Temperature54.6 °F65.7 °F (3:35 pm)48.7 °F (4:35 am)
Dewpoint48 °F51.1 °F (4:55 pm)46.4 °F (12:55 am)
Humidity79.6 %94 % (11:35 pm)52 % (2:55 pm)
Barometer30.16 in30.20 in (11:35 am)30.11 in (4:15 am)
Wind Speed8.3 mph15 mph (9:55 am)
Wind Gust20.7 mph (2:15 am)
Weather ElementAverage
Visibility9.8 mi
Wind DirectionSSW (213.4 °)

Weather ElementTotal
Precipitation---
Heating Degree Days7.8 (Base 65)
Growing Degree Days7.2 (Base 50)
Averaged from 71 records on April 23, 2013
WEATHER CONDITIONS BREAKOUT
WIND DIRECTION BREAKOUT
WEATHER BY HOUR - APRIL 23, 2013
[ °C ]   °F
Local TimeTemperatureDewpointHumidityBarometerVisibilityWind DirectionWind SpeedGust SpeedPrecipitationEventsConditions
12:35 AM49.1 °F46.6 °F91 %30.17 in10.0 miNorth (360°)10.4 mph18.4 mphOvercast
12:55 AM49.3 °F46.4 °F90 %30.16 in10.0 miNorth (10°)12.7 mph18.4 mphOvercast
1:15 AM49.1 °F46.6 °F91 %30.16 in7.0 miNorth (360°)11.5 mph16.1 mphOvercast
1:35 AM48.9 °F46.6 °F92 %30.15 in10.0 miNorth (10°)12.7 mphOvercast
1:55 AM49.1 °F46.4 °F90 %30.14 in10.0 miNorth (360°)10.4 mph17.3 mphOvercast
2:15 AM49.1 °F46.4 °F90 %30.14 in10.0 miNorth (350°)11.5 mph20.7 mphOvercast
2:35 AM49.1 °F46.4 °F90 %30.13 in10.0 miNorth (360°)13.8 mph20.7 mphOvercast
2:55 AM49.1 °F46.4 °F90 %30.12 in10.0 miNorth (350°)12.7 mph20.7 mphOvercast
3:15 AM49.1 °F46.4 °F90 %30.12 in10.0 miNorth (350°)13.8 mph18.4 mphOvercast
3:35 AM49.1 °F46.6 °F91 %30.12 in10.0 miNorth (350°)12.7 mphOvercast
3:55 AM49.1 °F46.4 °F90 %30.12 in10.0 miNorth (350°)11.5 mph17.3 mphOvercast
4:15 AM49.1 °F46.6 °F91 %30.11 in10.0 miNorth (360°)11.5 mphOvercast
4:35 AM48.7 °F46.4 °F92 %30.11 in10.0 miNorth (360°)13.8 mph17.3 mphOvercast
4:55 AM48.7 °F46.4 °F92 %30.12 in10.0 miNorth (360°)11.5 mph18.4 mphOvercast
5:15 AM49.1 °F46.6 °F91 %30.12 in10.0 miNorth (350°)13.8 mph18.4 mphOvercast
5:35 AM48.7 °F46.4 °F92 %30.12 in10.0 miNorth (350°)11.5 mphOvercast
5:55 AM48.7 °F46.4 °F92 %30.12 in10.0 miNorth (360°)11.5 mphOvercast
6:15 AM48.7 °F46.6 °F92 %30.13 in10.0 miNorth (360°)11.5 mph17.3 mphOvercast
6:35 AM48.7 °F46.6 °F92 %30.14 in7.0 miNorth (360°)11.5 mphOvercast
6:55 AM49.1 °F46.6 °F91 %30.14 in7.0 miNorth (360°)11.5 mph20.7 mphOvercast
7:15 AM49.1 °F46.6 °F91 %30.14 in7.0 miNorth (360°)11.5 mph19.6 mphOvercast
7:35 AM49.3 °F46.6 °F90 %30.15 in10.0 miNorth (360°)11.5 mph17.3 mphOvercast
7:55 AM49.6 °F46.6 °F89 %30.16 in10.0 miNNW (340°)10.4 mphOvercast
8:15 AM49.5 °F46.4 °F89 %30.16 in10.0 miNorth (360°)11.5 mph19.6 mphOvercast
8:35 AM50.0 °F46.6 °F88 %30.17 in10.0 miNorth (360°)13.8 mph18.4 mphOvercast
8:55 AM50.0 °F46.6 °F88 %30.17 in10.0 miNorth (350°)13.8 mph17.3 mphOvercast
9:15 AM51.1 °F47.1 °F86 %30.17 in10.0 miNorth (10°)12.7 mph16.1 mphOvercast
9:35 AM51.4 °F47.1 °F85 %30.18 in10.0 miNorth (360°)9.2 mphOvercast
9:55 AM52.0 °F46.9 °F83 %30.18 in10.0 miNNW (340°)15.0 mph19.6 mphOvercast
10:15 AM53.2 °F47.3 °F80 %30.19 in10.0 miNNW (340°)10.4 mph17.3 mphMostly Cloudy
10:35 AM54.5 °F47.5 °F77 %30.18 in10.0 miNorth (360°)11.5 mph17.3 mphMostly Cloudy
10:55 AM55.2 °F47.3 °F75 %30.19 in10.0 miNorth (360°)11.5 mph19.6 mphOvercast
11:15 AM55.6 °F47.7 °F75 %30.19 in10.0 miNorth (350°)11.5 mphOvercast
11:35 AM55.9 °F47.5 °F73 %30.20 in10.0 miNorth (360°)10.4 mph16.1 mphOvercast
11:55 AM57.0 °F47.7 °F71 %30.20 in10.0 miNorth (10°)15.0 mph18.4 mphOvercast
12:15 PM57.2 °F47.8 °F71 %30.19 in10.0 miNorth (360°)11.5 mphOvercast
12:35 PM57.2 °F47.7 °F70 %30.19 in10.0 miNorth (10°)8.1 mph17.3 mphOvercast
12:55 PM58.1 °F48.2 °F70 %30.18 in10.0 miNorth (10°)10.4 mph16.1 mphOvercast
1:15 PM58.5 °F48.0 °F68 %30.19 in10.0 miNNW (330°)9.2 mphMostly Cloudy
1:35 PM60.6 °F48.0 °F63 %30.17 in10.0 miNNW (340°)13.8 mph17.3 mphMostly Cloudy
1:55 PM61.9 °F48.2 °F61 %30.17 in10.0 miNW (320°)8.1 mphScattered Clouds
2:15 PM62.2 °F47.8 °F59 %30.17 in10.0 miNorth (360°)10.4 mphScattered Clouds
2:35 PM64.0 °F48.7 °F57 %30.16 in10.0 miNorth (360°)9.2 mphScattered Clouds
2:55 PM64.6 °F46.8 °F52 %30.16 in10.0 miNE (50°)5.8 mphScattered Clouds
3:15 PM63.3 °F46.8 °F55 %30.15 in10.0 miNNW (340°)3.5 mphScattered Clouds
3:35 PM65.7 °F47.5 °F52 %30.14 in10.0 miNE (40°)8.1 mphClear
3:55 PM64.8 °F46.8 °F52 %30.14 in10.0 miNorth (10°)6.9 mphClear
4:15 PM65.5 °F48.9 °F55 %30.14 in10.0 miENE (70°)3.5 mphClear
4:35 PM64.9 °F50.4 °F59 %30.14 in10.0 miSSE (160°)3.5 mphClear
4:55 PM64.8 °F51.1 °F61 %30.13 in10.0 miEast (90°)8.1 mphClear
5:15 PM64.2 °F50.7 °F61 %30.13 in10.0 miEast (100°)6.9 mphClear
5:35 PM63.0 °F49.8 °F62 %30.13 in10.0 miESE (120°)8.1 mphClear
5:55 PM62.2 °F49.6 °F63 %30.14 in10.0 miSE (130°)5.8 mphClear
6:15 PM62.2 °F50.0 °F64 %30.14 in10.0 miSouth (170°)6.9 mphClear
6:35 PM60.3 °F50.5 °F70 %30.15 in10.0 miSouth (170°)5.8 mphClear
6:55 PM59.5 °F50.5 °F72 %30.15 in10.0 miSouth (170°)4.6 mphClear
7:15 PM59.0 °F50.2 °F73 %30.15 in10.0 miSouth (170°)3.5 mphClear
7:35 PM58.3 °F50.4 °F75 %30.16 in10.0 miCalmClear
7:55 PM57.2 °F50.4 °F78 %30.16 in10.0 miSW (220°)3.5 mphClear
8:15 PM56.5 °F50.5 °F80 %30.16 in10.0 miCalmClear
8:35 PM55.9 °F50.9 °F83 %30.17 in10.0 miCalmClear
8:55 PM55.4 °F50.9 °F85 %30.17 in10.0 miCalmClear
9:15 PM54.5 °F50.9 °F88 %30.17 in10.0 miCalmClear
9:35 PM53.6 °F50.5 °F89 %30.18 in10.0 miCalmClear
9:55 PM52.7 °F50.2 °F91 %30.18 in10.0 miCalmClear
10:15 PM52.3 °F50.2 °F92 %30.19 in10.0 miCalmClear
10:35 PM52.3 °F50.0 °F92 %30.19 in10.0 miCalmClear
10:55 PM52.0 °F49.6 °F92 %30.19 in10.0 miCalmClear
11:15 PM51.4 °F49.3 °F92 %30.19 in10.0 miCalmClear
11:35 PM50.5 °F48.9 °F94 %30.18 in10.0 miCalmClear
11:55 PM50.0 °F48.4 °F94 %30.18 in10.0 miCalmClear
Hourly data recorded from KSUT, located miles away from Boiling Spring Lakes, North Carolina







STORIES FROM OUR PARTNERS